Location: ??????????
(54.4061°N, 22.6114°E)
Time: 20:45:22
(UTC+00:00)

COSMO-SKYMED 1 - Pass Details

Date: 23 October 2019
Orbit: 621 x 623 km, 97.9° (Epoch: 21 November)

Event Time Altitude Azimuth Distance (km) Brightness Sun altitude
Rises 15:47:11 0° 23° (NNE) 2,918 5.7 -5.5°
Reaches altitude 10° 15:49:44 10° 37° (NE) 2,005 4.7 -5.8°
Maximum altitude 15:53:19 24° 92° (E) 1,287 3.6 -6.3°
Drops below altitude 10° 15:56:53 10° 147° (SSE) 1,991 4.9 -6.8°
Sets 15:59:24 0° 162° (SSE) 2,892 5.9 -7.2°
